This is the latest recevied weather packets stored in our database for station/object KC1OHT-13. If no packets are shown the sender has not sent any weather packets the latest 1 day(s).
| Time | Temp. | Humidity | Pressure | Rain* | Wind** | Luminosity | Snow |
|---|---|---|---|---|---|---|---|
| 1778005570 | 23.33° C | 49% | 1006.1 hPa | 0 mm | 1.34 m/s, 337° | 656 W/m² | - |
| 1778005267 | 23.33° C | 48% | 1006.2 hPa | 0 mm | 3.13 m/s, 331° | 663 W/m² | - |
| 1778004964 | 22.78° C | 50% | 1006.2 hPa | 0 mm | 1.79 m/s, 179° | 669 W/m² | - |
| 1778004661 | 22.78° C | 52% | 1006.2 hPa | 0 mm | 1.79 m/s, 9° | 675 W/m² | - |
| 1778004357 | 23.33° C | 51% | 1006.2 hPa | 0 mm | 3.58 m/s, 273° | 679 W/m² | - |
| 1778004055 | 23.33° C | 50% | 1006.2 hPa | 0 mm | 2.68 m/s, 230° | 684 W/m² | - |
| 1778003750 | 23.33° C | 50% | 1006.3 hPa | 0 mm | 0.89 m/s, 21° | 688 W/m² | - |
| 1778003447 | 23.33° C | 50% | 1006.4 hPa | 0 mm | 1.34 m/s, 12° | 695 W/m² | - |
| 1778003144 | 23.89° C | 49% | 1006.5 hPa | 0 mm | 2.24 m/s, 233° | 697 W/m² | - |
| 1778002839 | 24.44° C | 49% | 1006.5 hPa | 0 mm | 1.79 m/s, 268° | 705 W/m² | - |
| 1778002537 | 23.89° C | 49% | 1006.3 hPa | 0 mm | 0.89 m/s, 18° | 707 W/m² | - |
| 1778002233 | 23.89° C | 48% | 1006.5 hPa | 0 mm | 0.89 m/s, 251° | 708 W/m² | - |
| 1778001931 | 25° C | 46% | 1006.5 hPa | 0 mm | 1.34 m/s, 55° | 713 W/m² | - |
| 1778001627 | 24.44° C | 47% | 1006.5 hPa | 0 mm | 0.45 m/s, 216° | 714 W/m² | - |
| 1778001322 | 23.33° C | 48% | 1006.5 hPa | 0 mm | 0.89 m/s, 239° | 711 W/m² | - |
| 1778001020 | 25° C | 46% | 1006.9 hPa | 0 mm | 1.34 m/s, 253° | 715 W/m² | - |
| 1778000716 | 25° C | 44% | 1006.7 hPa | 0 mm | 0.89 m/s, 195° | 708 W/m² | - |
| 1778000413 | 24.44° C | 46% | 1006.6 hPa | 0 mm | 0.89 m/s, 28° | 711 W/m² | - |
| 1778000108 | 24.44° C | 46% | 1006.9 hPa | 0 mm | 1.79 m/s, 120° | 712 W/m² | - |
| 1777999804 | 24.44° C | 47% | 1007.2 hPa | 0 mm | 1.34 m/s, 239° | 720 W/m² | - |
| 1777999500 | 23.89° C | 48% | 1007.2 hPa | 0 mm | 1.79 m/s, 144° | 714 W/m² | - |
| 1777999198 | 23.89° C | 48% | 1007.1 hPa | 0 mm | 2.24 m/s, 191° | 717 W/m² | - |
| 1777998897 | 23.89° C | 49% | 1007.4 hPa | 0 mm | 2.24 m/s, 86° | 718 W/m² | - |
| 1777998596 | 23.33° C | 49% | 1007.5 hPa | 0 mm | 1.79 m/s, 16° | 715 W/m² | - |
| 1777998291 | 23.33° C | 50% | 1007.5 hPa | 0 mm | 1.34 m/s, 149° | 705 W/m² | - |
* Rain latest hour (hover to see other rain measurements)
** Current wind speed in m/s (hover to see current wind gust speed)